ONEWEB-0057 (45160 NORAD) Tracking and Keplerian Element Data

This shows tracking and keplerian element data for the satellite.

Feedback or suggestion? Click here.




ElementValue
Catalog45160
NameONEWEB-0057
Epoch Orbit929
Epoch Day94.13774835
Epoch Year2020
RAAN145.4164
Inclination87.4867
Eccentricity0.0022038
Argument of Perigee92.0431
Mean Anonmoly268.3314
Mean Motion14.77820201
Decay Rate-0.00360604
L11 45160U 20008AF 20094.13774835 -.00360604 00000-0 -52723-1 0 9990
L22 45160 87.4867 145.4164 0022038 92.0431 268.3314 14.77820201 9296

Live tracking and technical data element details for ONEWEB-0057 (NORAD 45160). ONEWEB-0057 can be tracked NOW for your location showing map with azimuth and elevation plus other details from your city location.

Track the satellite on the map from your city or location and see movement details for azimuth, elevation, latitude, longitude, range, height, and movement on the map or in text.







IsCatalogInMostPopularTable: catalog: 45160, numindb: 9
Update: records affected: 1



GetName: 45160 ONEWEB-0057

Hit Count: updated at: Sun, 05 Apr 2020 19:07:24 GMT